�������l�o���
Date,Time,MP-1(��Sv/h),MP-2(��Sv/h),MP-3(��Sv/h),MP-4(��Sv/h),MP-5(��Sv/h),MP-6(��Sv/h),MP-7(��Sv/h),MP-8(��Sv/h),����,����(m/s),���J
2017/08/31,00:00,0.920,1.441,0.947,1.731,1.191,0.507,0.924,0.855,�k��,5.8,�L
2017/08/31,00:10,0.916,1.440,0.947,1.729,1.190,0.505,0.921,0.856,�k��,6.1,�L
2017/08/31,00:20,0.914,1.439,0.946,1.726,1.188,0.507,0.925,0.855,�k��,5.3,�L
2017/08/31,00:30,0.914,1.436,0.946,1.727,1.186,0.505,0.924,0.855,�k��,5.1,�L
2017/08/31,00:40,0.915,1.438,0.945,1.727,1.188,0.506,0.922,0.856,�k��,5.2,�L
2017/08/31,00:50,0.915,1.437,0.943,1.725,1.188,0.507,0.923,0.854,�k�k��,5.0,�L
2017/08/31,01:00,0.916,1.437,0.943,1.727,1.188,0.505,0.924,0.857,�k�k��,5.3,�L
2017/08/31,01:10,0.915,1.436,0.942,1.727,1.189,0.506,0.926,0.855,�k��,5.0,�L
2017/08/31,01:20,0.914,1.436,0.942,1.725,1.187,0.506,0.921,0.854,�k�k��,4.8,�L
2017/08/31,01:30,0.914,1.433,0.941,1.726,1.186,0.505,0.923,0.854,�k�k��,4.0,�L
2017/08/31,01:40,0.915,1.435,0.942,1.724,1.188,0.507,0.922,0.854,�k,4.6,�L
2017/08/31,01:50,0.914,1.432,0.942,1.725,1.183,0.508,0.922,0.854,�k�k��,4.5,�L
2017/08/31,02:00,0.912,1.437,0.944,1.725,1.189,0.507,0.923,0.855,�k�k��,5.1,�L
2017/08/31,02:10,0.915,1.436,0.944,1.726,1.188,0.503,0.922,0.855,�k�k��,5.4,�L
2017/08/31,02:20,0.914,1.436,0.945,1.722,1.188,0.506,0.922,0.856,�k�k��,5.2,�L
2017/08/31,02:30,0.914,1.435,0.944,1.727,1.187,0.506,0.923,0.855,�k�k��,5.1,�L
2017/08/31,02:40,0.914,1.435,0.944,1.726,1.189,0.506,0.924,0.855,�k,4.5,�L
2017/08/31,02:50,0.915,1.438,0.946,1.725,1.190,0.505,0.923,0.857,�k,4.7,�L
2017/08/31,03:00,0.916,1.440,0.945,1.727,1.189,0.508,0.923,0.858,�k,5.6,�L
2017/08/31,03:10,0.916,1.434,0.944,1.724,1.187,0.507,0.923,0.858,�k,5.3,�L
2017/08/31,03:20,0.915,1.436,0.945,1.724,1.187,0.508,0.923,0.856,�k,7.6,�L
2017/08/31,03:30,0.916,1.435,0.944,1.722,1.187,0.508,0.922,0.856,�k,8.9,�L
2017/08/31,03:40,0.914,1.434,0.942,1.720,1.185,0.507,0.923,0.856,�k,9.5,�L
2017/08/31,03:50,0.913,1.430,0.940,1.718,1.182,0.505,0.921,0.856,�k,10.8,�L
2017/08/31,04:00,0.912,1.431,0.940,1.720,1.185,0.503,0.923,0.855,�k,9.4,�L
2017/08/31,04:10,0.915,1.433,0.939,1.718,1.181,0.505,0.922,0.856,�k,9.9,�L
2017/08/31,04:20,0.911,1.432,0.941,1.721,1.182,0.504,0.923,0.856,�k,8.9,�L
2017/08/31,04:30,0.911,1.433,0.942,1.719,1.183,0.505,0.923,0.855,�k,11.1,�L
2017/08/31,04:40,0.911,1.435,0.940,1.722,1.184,0.506,0.923,0.856,�k,10.2,��
2017/08/31,04:50,0.914,1.435,0.942,1.725,1.183,0.504,0.921,0.857,�k�k��,9.3,�L
2017/08/31,05:00,0.912,1.437,0.943,1.724,1.186,0.504,0.923,0.856,�k�k��,9.0,�L
2017/08/31,05:10,0.913,1.436,0.942,1.724,1.185,0.503,0.924,0.856,�k�k��,10.3,�L
2017/08/31,05:20,0.914,1.437,0.943,1.722,1.188,0.504,0.923,0.857,�k�k��,9.7,�L
2017/08/31,05:30,0.912,1.436,0.944,1.723,1.187,0.504,0.923,0.855,�k�k��,10.6,�L
2017/08/31,05:40,0.914,1.436,0.944,1.724,1.186,0.503,0.923,0.856,�k�k��,10.2,�L
2017/08/31,05:50,0.913,1.439,0.942,1.723,1.188,0.503,0.923,0.857,�k�k��,10.6,�L
2017/08/31,06:00,0.914,1.438,0.942,1.729,1.186,0.504,0.923,0.856,�k�k��,10.5,�L
2017/08/31,06:10,0.913,1.440,0.944,1.726,1.190,0.502,0.923,0.856,�k�k��,9.8,��
2017/08/31,06:20,0.914,1.439,0.943,1.728,1.189,0.503,0.925,0.857,�k�k��,10.2,��
2017/08/31,06:30,0.913,1.440,0.940,1.726,1.191,0.502,0.923,0.858,�k�k��,10.4,��
2017/08/31,06:40,0.914,1.441,0.944,1.728,1.188,0.504,0.923,0.857,�k�k��,10.2,��
2017/08/31,06:50,0.915,1.442,0.944,1.728,1.189,0.504,0.924,0.858,�k�k��,9.6,��
2017/08/31,07:00,0.916,1.442,0.945,1.729,1.192,0.503,0.924,0.860,�k�k��,9.2,��
2017/08/31,07:10,0.917,1.442,0.943,1.731,1.189,0.503,0.926,0.860,�k�k��,8.7,��
2017/08/31,07:20,0.917,1.447,0.947,1.734,1.191,0.503,0.927,0.859,�k,7.8,��
2017/08/31,07:30,0.914,1.443,0.945,1.732,1.193,0.505,0.924,0.858,�k,6.4,��
2017/08/31,07:40,0.916,1.444,0.946,1.732,1.189,0.504,0.924,0.860,�k,6.1,��
2017/08/31,07:50,0.915,1.442,0.944,1.733,1.192,0.503,0.925,0.860,�k,7.3,��
2017/08/31,08:00,0.916,1.444,0.946,1.733,1.193,0.504,0.924,0.861,�k,9.0,��
2017/08/31,08:10,0.915,1.444,0.945,1.734,1.192,0.504,0.926,0.859,�k,7.2,�L
2017/08/31,08:20,0.915,1.445,0.945,1.736,1.191,0.504,0.924,0.859,�k,6.2,�L
2017/08/31,08:30,0.917,1.442,0.947,1.733,1.193,0.505,0.926,0.858,�k�k��,6.3,�L
2017/08/31,08:40,0.917,1.444,0.948,1.734,1.193,0.504,0.927,0.857,�k�k��,5.4,�L
2017/08/31,08:50,0.916,1.447,0.946,1.735,1.192,0.505,0.925,0.858,�k,5.9,�L
2017/08/31,09:00,0.919,1.444,0.944,1.733,1.194,0.505,0.927,0.857,�k�k��,5.6,�L
2017/08/31,09:10,0.915,1.444,0.943,1.735,1.194,0.506,0.927,0.855,�k,5.6,�L
2017/08/31,09:20,0.910,1.431,0.936,1.724,1.182,0.501,0.923,0.853,�k,5.1,�L
2017/08/31,09:30,0.902,1.420,0.937,1.722,1.180,0.500,0.920,0.850,�k�k��,6.2,�L
2017/08/31,09:40,0.899,1.417,0.933,1.718,1.177,0.500,0.918,0.849,�k,5.3,�L
2017/08/31,09:50,0.897,1.411,0.930,1.714,1.175,0.500,0.911,0.847,�k,5.5,�L
2017/08/31,10:00,0.893,1.404,0.930,1.701,1.169,0.499,0.913,0.844,�k�k��,8.6,�L
2017/08/31,10:10,0.897,1.407,0.929,1.704,1.169,0.500,0.912,0.846,�k�k��,7.9,�L
2017/08/31,10:20,0.900,1.412,0.930,1.705,1.170,0.500,0.916,0.849,�k,7.0,�L
2017/08/31,10:30,0.899,1.412,0.932,1.706,1.173,0.498,0.915,0.850,�k�k��,5.6,�L
2017/08/31,10:40,0.901,1.413,0.930,1.708,1.171,0.499,0.915,0.849,�k,6.5,�L
2017/08/31,10:50,0.901,1.417,0.933,1.709,1.172,0.500,0.914,0.850,�k�k��,7.5,�L
2017/08/31,11:00,0.904,1.416,0.933,1.709,1.175,0.499,0.916,0.850,�k,6.4,�L
2017/08/31,11:10,0.906,1.416,0.936,1.710,1.176,0.501,0.915,0.852,�k,7.2,�L
2017/08/31,11:20,0.904,1.416,0.931,1.711,1.170,0.499,0.916,0.849,�k,6.3,�L
2017/08/31,11:30,0.902,1.415,0.933,1.710,1.171,0.502,0.916,0.850,�k,5.4,�L
2017/08/31,11:40,0.902,1.416,0.932,1.711,1.173,0.501,0.915,0.848,�k�k��,5.3,�L
2017/08/31,11:50,0.902,1.415,0.932,1.709,1.170,0.500,0.915,0.850,�k�k��,5.0,�L
2017/08/31,12:00,0.897,1.401,0.928,1.702,1.160,0.499,0.913,0.847,�k��,5.7,�L
2017/08/31,12:10,0.900,1.405,0.929,1.700,1.164,0.502,0.914,0.848,�k��,7.8,�L
2017/08/31,12:20,0.903,1.410,0.930,1.702,1.167,0.500,0.913,0.850,�k��,7.9,�L
2017/08/31,12:30,0.900,1.413,0.926,1.706,1.170,0.501,0.916,0.849,�k��,7.1,�L
2017/08/31,12:40,0.904,1.416,0.927,1.707,1.171,0.500,0.915,0.850,�k��,7.5,�L
2017/08/31,12:50,0.906,1.417,0.930,1.709,1.173,0.502,0.916,0.849,�k�k��,6.5,�L
2017/08/31,13:00,0.907,1.422,0.929,1.710,1.172,0.501,0.917,0.851,�k�k��,7.5,�L
2017/08/31,13:10,0.907,1.423,0.934,1.714,1.174,0.501,0.917,0.851,�k�k��,7.9,�L
2017/08/31,13:20,0.906,1.425,0.933,1.714,1.174,0.501,0.919,0.854,�k�k��,8.3,�L
2017/08/31,13:30,0.912,1.423,0.928,1.718,1.176,0.502,0.918,0.853,�k,6.9,��
2017/08/31,13:40,0.909,1.423,0.929,1.716,1.178,0.500,0.919,0.852,�k,7.4,��
2017/08/31,13:50,0.910,1.423,0.930,1.716,1.177,0.502,0.919,0.852,�k,6.8,��
2017/08/31,14:00,0.910,1.426,0.936,1.717,1.179,0.501,0.921,0.852,�k,7.7,��
2017/08/31,14:10,0.912,1.425,0.937,1.718,1.180,0.502,0.922,0.850,�k�k��,6.4,��
2017/08/31,14:20,0.910,1.428,0.935,1.717,1.182,0.503,0.921,0.853,�k,6.8,�L
2017/08/31,14:30,0.913,1.425,0.937,1.722,1.180,0.503,0.921,0.853,�k,6.8,�L
2017/08/31,14:40,0.910,1.429,0.939,1.719,1.181,0.502,0.922,0.853,�k,6.9,�L
2017/08/31,14:50,0.913,1.427,0.937,1.721,1.181,0.502,0.921,0.853,�k,5.8,�L
2017/08/31,15:00,0.911,1.428,0.936,1.723,1.184,0.502,0.923,0.854,�k,6.4,�L
2017/08/31,15:10,0.911,1.429,0.937,1.724,1.185,0.502,0.923,0.852,�k,6.6,�L
2017/08/31,15:20,0.913,1.435,0.936,1.727,1.184,0.502,0.923,0.854,�k,6.7,�L
2017/08/31,15:30,0.912,1.434,0.936,1.726,1.183,0.501,0.922,0.855,�k,6.2,�L
2017/08/31,15:40,0.913,1.433,0.939,1.724,1.181,0.502,0.922,0.856,�k�k��,7.7,�L
2017/08/31,15:50,0.913,1.433,0.937,1.726,1.181,0.502,0.924,0.855,�k�k��,7.5,�L
2017/08/31,16:00,0.912,1.435,0.937,1.726,1.186,0.502,0.921,0.856,�k�k��,8.0,�L
2017/08/31,16:10,0.913,1.437,0.940,1.727,1.185,0.503,0.922,0.855,�k�k��,7.6,��
2017/08/31,16:20,0.913,1.435,0.940,1.730,1.187,0.503,0.922,0.856,�k,7.8,��
2017/08/31,16:30,0.914,1.437,0.940,1.732,1.185,0.503,0.923,0.856,�k,7.9,��
2017/08/31,16:40,0.913,1.439,0.942,1.729,1.186,0.503,0.924,0.856,�k,7.7,��
2017/08/31,16:50,0.914,1.439,0.944,1.730,1.188,0.506,0.923,0.857,�k�k��,7.5,��
2017/08/31,17:00,0.916,1.437,0.943,1.728,1.189,0.505,0.924,0.856,�k�k��,8.4,�L
2017/08/31,17:10,0.914,1.442,0.942,1.727,1.189,0.503,0.924,0.857,�k,6.3,�L
2017/08/31,17:20,0.913,1.436,0.941,1.728,1.184,0.504,0.921,0.854,�k,7.8,�L
2017/08/31,17:30,0.912,1.434,0.936,1.728,1.182,0.504,0.921,0.855,�k�k��,8.2,�L
2017/08/31,17:40,0.911,1.428,0.938,1.725,1.178,0.503,0.922,0.855,�k,8.1,�L
2017/08/31,17:50,0.910,1.431,0.936,1.722,1.179,0.503,0.922,0.855,�k,7.1,�L
2017/08/31,18:00,0.911,1.429,0.938,1.723,1.176,0.502,0.920,0.855,�k,7.5,�L
2017/08/31,18:10,0.910,1.429,0.936,1.723,1.179,0.502,0.920,0.856,�k�k��,7.6,�L
2017/08/31,18:20,0.911,1.429,0.936,1.724,1.174,0.503,0.922,0.855,�k,9.1,�L
2017/08/31,18:30,0.910,1.426,0.933,1.724,1.178,0.504,0.922,0.855,�k,8.2,�L
2017/08/31,18:40,0.910,1.427,0.935,1.724,1.177,0.502,0.922,0.855,�k�k��,8.4,�L
2017/08/31,18:50,0.910,1.428,0.939,1.721,1.178,0.503,0.922,0.857,�k�k��,8.2,�L
2017/08/31,19:00,0.909,1.426,0.940,1.722,1.177,0.504,0.922,0.856,�k,8.7,�L
2017/08/31,19:10,0.910,1.429,0.936,1.721,1.175,0.502,0.922,0.856,�k,8.9,�L
2017/08/31,19:20,0.910,1.429,0.937,1.724,1.176,0.503,0.921,0.854,�k,8.0,�L
2017/08/31,19:30,0.912,1.432,0.938,1.723,1.178,0.502,0.922,0.857,�k,8.8,�L
2017/08/31,19:40,0.909,1.432,0.938,1.723,1.176,0.504,0.922,0.858,�k�k��,8.9,�L
2017/08/31,19:50,0.912,1.435,0.937,1.726,1.177,0.503,0.923,0.856,�k,8.8,��
2017/08/31,20:00,0.911,1.433,0.939,1.722,1.180,0.503,0.924,0.858,�k,9.3,�L
2017/08/31,20:10,0.912,1.431,0.940,1.723,1.179,0.504,0.923,0.858,�k,8.9,��
2017/08/31,20:20,0.910,1.434,0.941,1.725,1.180,0.504,0.922,0.857,�k,8.0,�L
2017/08/31,20:30,0.912,1.434,0.939,1.725,1.183,0.505,0.924,0.857,�k,8.4,��
2017/08/31,20:40,0.909,1.435,0.938,1.724,1.181,0.504,0.922,0.857,�k,7.7,��
2017/08/31,20:50,0.912,1.434,0.940,1.725,1.182,0.503,0.923,0.857,�k�k��,8.1,��
2017/08/31,21:00,0.912,1.433,0.940,1.726,1.181,0.503,0.922,0.859,�k�k��,8.1,��
2017/08/31,21:10,0.912,1.435,0.942,1.726,1.182,0.504,0.921,0.859,�k�k��,8.5,��
2017/08/31,21:20,0.912,1.439,0.940,1.727,1.183,0.504,0.923,0.858,�k�k��,7.8,�L
2017/08/31,21:30,0.912,1.437,0.942,1.729,1.184,0.503,0.924,0.860,�k�k��,8.4,��
2017/08/31,21:40,0.914,1.437,0.941,1.730,1.183,0.503,0.922,0.857,�k�k��,8.7,��
2017/08/31,21:50,0.914,1.436,0.942,1.726,1.183,0.503,0.924,0.858,�k�k��,8.8,��
2017/08/31,22:00,0.917,1.437,0.940,1.729,1.183,0.505,0.925,0.859,�k�k��,7.6,�L
2017/08/31,22:10,0.914,1.436,0.942,1.725,1.187,0.504,0.923,0.858,�k�k��,8.1,�L
2017/08/31,22:20,0.916,1.436,0.941,1.729,1.183,0.504,0.925,0.859,�k�k��,7.7,�L
2017/08/31,22:30,0.916,1.437,0.943,1.729,1.184,0.503,0.925,0.859,�k�k��,7.0,�L
2017/08/31,22:40,0.914,1.434,0.942,1.728,1.183,0.503,0.923,0.858,�k�k��,8.6,�L
2017/08/31,22:50,0.915,1.434,0.940,1.730,1.182,0.506,0.924,0.859,�k�k��,8.5,�L
2017/08/31,23:00,0.914,1.432,0.938,1.724,1.180,0.503,0.921,0.859,�k�k��,8.7,�L
2017/08/31,23:10,0.911,1.431,0.938,1.726,1.181,0.504,0.922,0.858,�k�k��,9.4,�L
2017/08/31,23:20,0.910,1.429,0.936,1.725,1.177,0.501,0.923,0.855,�k�k��,8.2,�L
2017/08/31,23:30,0.909,1.429,0.934,1.724,1.174,0.502,0.922,0.855,�k�k��,9.7,�L
2017/08/31,23:40,0.908,1.425,0.935,1.720,1.176,0.503,0.921,0.854,�k�k��,10.2,�L
2017/08/31,23:50,0.905,1.422,0.935,1.722,1.176,0.504,0.922,0.853,�k�k��,8.8,�L
